ニート彗星

180P/NEAT (2023)

English version
Home page
Updated on October 8, 2022

---------------------------------------------------------------------

・ プロフィール

・ 軌道要素

Epoch 2022 Aug. 9.0 TT = JDT 2459800.5
T 2023 July 12.36396 TT                                 Rudenko
q   2.5005592            (2000.0)            P               Q
n   0.12967907     Peri.   94.70569     -0.95726483     -0.01611993
a   3.8656524      Node    84.57187     -0.10714243     -0.90763747
e   0.3531340      Incl.   16.86179     +0.26863458     -0.41944532
P   7.60
From 810 observations 1955 May 14-2022 Sept. 29, mean residual 0".8.
     Nongravitational parameters A1 = -0.83, A2 = +0.0558.

・ 光度変化

        m1 = 7.5 + 5 logΔ + 20.0 log r

---------------------------------------------------------------------

軌道要素はM.P.E.C. 2022-T100に掲載されたものです。
光度グラフはComet for Windowsで作成したものです。

---------------------------------------------------------------------

Copyright(C) Seiichi Yoshida (comet@aerith.net). All rights reserved.